Location: Silverdale
(47.6506°N, 122.6941°W)
Time: 00:04:46
(UTC+00:00)

A-11 Canister half - Pass Details

Date: 09 October 2022
Orbit: 1524 x 1685 km, 47.3° (Epoch: 05 December)

Event Time Altitude Azimuth Distance (km) Brightness Sun altitude
Rises 05:37:31 0° 288° (WNW) 4,720 12.3 -38.9°
Reaches altitude 10° 05:41:44 10° 272° (W) 3,756 11.5 -39.4°
Maximum altitude 05:47:41 19° 232° (SW) 3,144 10.6 -40.1°
Enters shadow 05:48:30 19° 226° (SW) 3,161 10.6 -40.2°
